Eden Prairie, MN

10:58 AM CST on February 19, 2017 (GMT -0600)
Flying Cloud

Weather History for KFCM - September, 2011

Change the Weather History Date:

Monday, September 19, 2011

  Actual Average Record
Temperature  
Mean Temperature 62 °F -  
Max Temperature 75 °F 69 °F 93 °F (1998)
Min Temperature 48 °F 49 °F 44 °F (2003)
Degree Days  
Heating Degree Days 4    
Growing Degree Days 12 (Base 50)    
Moisture  
Dew Point 49 °F    
Average Humidity 83    
Maximum Humidity 100    
Minimum Humidity 26    
Precipitation  
Precipitation 0.01 in - - ()
Sea Level Pressure  
Sea Level Pressure 29.97 in    
Wind  
Wind Speed 2 mph (WSW)    
Max Wind Speed 10 mph    
Max Gust Speed -    
Visibility 4 miles    
Events Fog    
Averages and records for this station are not official NWS values.
T = Trace of Precipitation, MM = Missing Value Source: NWS Daily Summary

Daily Weather History Graph

Daily Weather History Graph

Search for Another Location

Airport or City:

Trip Planner

Search our weather history database for the weather conditions in past years. The results will help you decide how hot, cold, wet, or windy it might be!

Date:

Astronomy

Sep. 19, 2011 Rise Set
Actual Time 6:57 AM CDT 7:17 PM CDT
Civil Twilight 6:27 AM CDT 7:46 PM CDT
Nautical Twilight 5:53 AM CDT 8:21 PM CDT
Astronomical Twilight 5:17 AM CDT 8:56 PM CDT
Moon 11:07 PM CDT 2:05 PM CDT
Length of Visible Light 13h 18m
Length of Day
12h 20m
Waning Gibbous, 58% of the Moon is Illuminated
Sep 19
Waning Gibbous
Sep 20
Last Quarter
Sep 27
New
Oct 3
First Quarter
Oct 11
Full

Hourly Weather History & Observations

Time (CDT) Temp. Dew Point Humidity Pressure Visibility Wind Dir Wind Speed Gust Speed Precip Events Conditions
12:14 AM 53.6 °F 53.6 °F 100% 29.94 in 0.5 mi Calm Calm - N/A Fog Fog
12:20 AM 53.6 °F 53.6 °F 100% 29.94 in 2.0 mi Calm Calm - N/A   Clear
12:25 AM 51.8 °F 51.8 °F 100% 29.95 in 0.8 mi Calm Calm - N/A   Mist
12:43 AM 53.6 °F 53.6 °F 100% 29.94 in 1.8 mi WSW 3.5 mph - N/A   Clear
12:53 AM 53.1 °F 53.1 °F 100% 29.95 in 1.0 mi WSW 3.5 mph - 0.01 in   Clear
1:00 AM 53.6 °F 53.6 °F 100% 29.95 in 0.5 mi Calm Calm - N/A Fog Fog
1:18 AM 53.6 °F 51.8 °F 94% 29.96 in 0.2 mi WNW 4.6 mph - N/A Fog Fog
1:33 AM 53.6 °F 51.8 °F 94% 29.96 in 0.5 mi Calm Calm - N/A Fog Fog
1:42 AM 51.8 °F 51.8 °F 100% 29.96 in 0.2 mi Calm Calm - N/A Fog Fog
1:53 AM 51.1 °F 50.0 °F 96% 29.97 in 0.2 mi NW 4.6 mph - N/A Fog Fog
2:11 AM 51.8 °F 51.8 °F 100% 29.97 in 0.5 mi West 3.5 mph - N/A Fog Fog
2:33 AM 51.8 °F 51.8 °F 100% 29.96 in 0.5 mi WSW 3.5 mph - N/A Fog Fog
2:51 AM 51.8 °F 51.8 °F 100% 29.96 in 0.2 mi SW 3.5 mph - N/A Fog Fog
2:53 AM 51.1 °F 50.0 °F 96% 29.97 in 0.2 mi SW 3.5 mph - N/A Fog Fog
3:04 AM 51.8 °F 50.0 °F 94% 29.96 in 0.2 mi Calm Calm - N/A Fog Fog
3:23 AM 50.0 °F 48.2 °F 94% 29.96 in 0.2 mi Calm Calm - N/A Fog Fog
3:48 AM 51.8 °F 50.0 °F 94% 29.97 in 0.5 mi Calm Calm - N/A Fog Fog
4:16 AM 50.0 °F 50.0 °F 100% 29.97 in 0.5 mi Calm Calm - N/A Fog Fog
4:25 AM 51.8 °F 50.0 °F 94% 29.97 in 0.5 mi Calm Calm - N/A Fog Fog
4:35 AM 50.0 °F 48.2 °F 94% 29.97 in 0.2 mi Calm Calm - N/A Fog Fog
4:53 AM 50.0 °F 48.9 °F 96% 29.99 in 0.2 mi SW 3.5 mph - N/A Fog Fog
5:03 AM 48.2 °F 48.2 °F 100% 29.98 in 0.5 mi SW 3.5 mph - N/A Fog Fog
5:35 AM 48.2 °F 48.2 °F 100% 29.98 in 0.2 mi SW 3.5 mph - N/A Fog Fog
6:34 AM 48.2 °F 48.2 °F 100% 29.99 in 0.8 mi West 3.5 mph - N/A   Mist
6:48 AM 51.8 °F 51.8 °F 100% 30.00 in 0.2 mi West 3.5 mph - N/A Fog Fog
7:53 AM 52.0 °F 51.1 °F 97% 30.01 in 0.1 mi Calm Calm - N/A Fog Fog
8:25 AM 53.6 °F 51.8 °F 94% 30.01 in 0.5 mi NNW 5.8 mph - N/A Fog Fog
8:42 AM 53.6 °F 51.8 °F 94% 30.02 in 1.0 mi NNW 3.5 mph - N/A   Overcast
9:00 AM 53.6 °F 51.8 °F 94% 30.02 in 4.0 mi North 3.5 mph - N/A   Overcast
9:53 AM 55.0 °F 52.0 °F 89% 30.03 in 9.0 mi Calm Calm - N/A   Mostly Cloudy
10:03 AM 57.2 °F 53.6 °F 88% 30.03 in 10.0 mi Variable 3.5 mph - N/A   Scattered Clouds
10:53 AM 61.0 °F 53.1 °F 75% 30.04 in 10.0 mi Calm Calm - N/A   Scattered Clouds
11:53 AM 64.0 °F 54.0 °F 70% 30.04 in 10.0 mi SW 3.5 mph - N/A   Clear
12:53 PM 66.9 °F 53.1 °F 61% 30.04 in 10.0 mi Variable 6.9 mph - N/A   Clear
2:53 PM 72.0 °F 44.1 °F 37% 29.99 in 10.0 mi Variable 4.6 mph - N/A   Clear
3:53 PM 73.9 °F 39.0 °F 28% 29.97 in 10.0 mi NW 10.4 mph - N/A   Clear
4:53 PM 75.0 °F 37.9 °F 26% 29.96 in 10.0 mi West 8.1 mph - N/A   Clear
5:53 PM 72.0 °F 39.9 °F 31% 29.95 in 10.0 mi Calm Calm - N/A   Clear
6:53 PM 66.9 °F 46.0 °F 47% 29.95 in 10.0 mi ENE 3.5 mph - N/A   Clear
7:53 PM 63.0 °F 45.0 °F 52% 29.95 in 10.0 mi Calm Calm - N/A   Clear
8:53 PM 63.0 °F 44.1 °F 50% 29.95 in 10.0 mi ESE 5.8 mph - N/A   Clear
9:53 PM 59.0 °F 44.1 °F 58% 29.94 in 10.0 mi SE 6.9 mph - N/A   Clear
10:53 PM 59.0 °F 45.0 °F 60% 29.92 in 10.0 mi ESE 6.9 mph - N/A   Clear
11:53 PM 55.0 °F 45.0 °F 69% 29.93 in 10.0 mi SSE 5.8 mph - N/A   Clear